<?xml version="1.0"?>
<gpx xmlns="http://www.topografix.com/GPX/1/1" xmlns:xsi="http://www.w3.org/2001/XMLSchema-instance" version="1.1" creator="GPX RubyGem 1.0.0 -- http://dougfales.github.io/gpx/" xsi:schemaLocation="http://www.topografix.com/GPX/1/1 http://www.topografix.com/GPX/1/1/gpx.xsd">
  <metadata>
    <name/>
    <time>2026-05-08T18:48:57+00:00</time>
    <bound minlat="90.0" minlon="180.0" maxlat="-90.0" maxlon="-180.0"/>
  </metadata>
  <trk>
    <name/>
    <trkseg>
      <trkpt lat="50.572295" lon="10.581497">
        <time>1970-01-01T00:00:00+00:00</time>
        <ele>421.0</ele>
      </trkpt>
      <trkpt lat="50.572622" lon="10.581903">
        <time>1970-01-01T00:00:00+00:00</time>
        <ele>418.0</ele>
      </trkpt>
      <trkpt lat="50.572493" lon="10.582155">
        <time>1970-01-01T00:00:00+00:00</time>
        <ele>417.0</ele>
      </trkpt>
      <trkpt lat="50.572401" lon="10.582413">
        <time>1970-01-01T00:00:00+00:00</time>
        <ele>417.0</ele>
      </trkpt>
      <trkpt lat="50.572373" lon="10.582507">
        <time>1970-01-01T00:00:00+00:00</time>
        <ele>418.0</ele>
      </trkpt>
      <trkpt lat="50.572357" lon="10.582544">
        <time>1970-01-01T00:00:00+00:00</time>
        <ele>418.0</ele>
      </trkpt>
      <trkpt lat="50.572315" lon="10.582637">
        <time>1970-01-01T00:00:00+00:00</time>
        <ele>418.0</ele>
      </trkpt>
      <trkpt lat="50.572115" lon="10.583072">
        <time>1970-01-01T00:00:00+00:00</time>
        <ele>420.0</ele>
      </trkpt>
      <trkpt lat="50.572059" lon="10.583205">
        <time>1970-01-01T00:00:00+00:00</time>
        <ele>421.0</ele>
      </trkpt>
      <trkpt lat="50.572106" lon="10.583466">
        <time>1970-01-01T00:00:00+00:00</time>
        <ele>422.0</ele>
      </trkpt>
      <trkpt lat="50.572481" lon="10.584082">
        <time>1970-01-01T00:00:00+00:00</time>
        <ele>424.0</ele>
      </trkpt>
      <trkpt lat="50.572778" lon="10.584324">
        <time>1970-01-01T00:00:00+00:00</time>
        <ele>423.0</ele>
      </trkpt>
      <trkpt lat="50.572921" lon="10.584455">
        <time>1970-01-01T00:00:00+00:00</time>
        <ele>424.0</ele>
      </trkpt>
      <trkpt lat="50.573242" lon="10.584916">
        <time>1970-01-01T00:00:00+00:00</time>
        <ele>424.0</ele>
      </trkpt>
      <trkpt lat="50.573214" lon="10.585037">
        <time>1970-01-01T00:00:00+00:00</time>
        <ele>425.0</ele>
      </trkpt>
      <trkpt lat="50.573161" lon="10.585116">
        <time>1970-01-01T00:00:00+00:00</time>
        <ele>426.0</ele>
      </trkpt>
      <trkpt lat="50.572766" lon="10.585601">
        <time>1970-01-01T00:00:00+00:00</time>
        <ele>433.0</ele>
      </trkpt>
      <trkpt lat="50.572613" lon="10.585643">
        <time>1970-01-01T00:00:00+00:00</time>
        <ele>434.0</ele>
      </trkpt>
      <trkpt lat="50.572545" lon="10.585596">
        <time>1970-01-01T00:00:00+00:00</time>
        <ele>435.0</ele>
      </trkpt>
      <trkpt lat="50.572376" lon="10.585369">
        <time>1970-01-01T00:00:00+00:00</time>
        <ele>435.0</ele>
      </trkpt>
      <trkpt lat="50.571929" lon="10.584934">
        <time>1970-01-01T00:00:00+00:00</time>
        <ele>435.0</ele>
      </trkpt>
      <trkpt lat="50.570764" lon="10.588261">
        <time>1970-01-01T00:00:00+00:00</time>
        <ele>463.0</ele>
      </trkpt>
      <trkpt lat="50.570764" lon="10.588419">
        <time>1970-01-01T00:00:00+00:00</time>
        <ele>464.0</ele>
      </trkpt>
      <trkpt lat="50.570675" lon="10.588493">
        <time>1970-01-01T00:00:00+00:00</time>
        <ele>465.0</ele>
      </trkpt>
      <trkpt lat="50.570306" lon="10.58961">
        <time>1970-01-01T00:00:00+00:00</time>
        <ele>475.0</ele>
      </trkpt>
      <trkpt lat="50.570016" lon="10.590031">
        <time>1970-01-01T00:00:00+00:00</time>
        <ele>480.0</ele>
      </trkpt>
      <trkpt lat="50.569858" lon="10.590342">
        <time>1970-01-01T00:00:00+00:00</time>
        <ele>481.0</ele>
      </trkpt>
      <trkpt lat="50.569695" lon="10.590837">
        <time>1970-01-01T00:00:00+00:00</time>
        <ele>487.0</ele>
      </trkpt>
      <trkpt lat="50.569642" lon="10.59089">
        <time>1970-01-01T00:00:00+00:00</time>
        <ele>488.0</ele>
      </trkpt>
      <trkpt lat="50.569558" lon="10.591069">
        <time>1970-01-01T00:00:00+00:00</time>
        <ele>489.0</ele>
      </trkpt>
      <trkpt lat="50.569474" lon="10.591501">
        <time>1970-01-01T00:00:00+00:00</time>
        <ele>495.0</ele>
      </trkpt>
      <trkpt lat="50.569495" lon="10.591607">
        <time>1970-01-01T00:00:00+00:00</time>
        <ele>496.0</ele>
      </trkpt>
      <trkpt lat="50.57009" lon="10.592982">
        <time>1970-01-01T00:00:00+00:00</time>
        <ele>507.0</ele>
      </trkpt>
      <trkpt lat="50.570285" lon="10.593361">
        <time>1970-01-01T00:00:00+00:00</time>
        <ele>510.0</ele>
      </trkpt>
      <trkpt lat="50.570896" lon="10.593982">
        <time>1970-01-01T00:00:00+00:00</time>
        <ele>515.0</ele>
      </trkpt>
      <trkpt lat="50.571476" lon="10.594372">
        <time>1970-01-01T00:00:00+00:00</time>
        <ele>524.0</ele>
      </trkpt>
      <trkpt lat="50.57167" lon="10.594562">
        <time>1970-01-01T00:00:00+00:00</time>
        <ele>528.0</ele>
      </trkpt>
      <trkpt lat="50.571881" lon="10.594815">
        <time>1970-01-01T00:00:00+00:00</time>
        <ele>531.0</ele>
      </trkpt>
      <trkpt lat="50.571934" lon="10.594973">
        <time>1970-01-01T00:00:00+00:00</time>
        <ele>532.0</ele>
      </trkpt>
      <trkpt lat="50.571944" lon="10.595131">
        <time>1970-01-01T00:00:00+00:00</time>
        <ele>532.0</ele>
      </trkpt>
      <trkpt lat="50.571886" lon="10.595336">
        <time>1970-01-01T00:00:00+00:00</time>
        <ele>533.0</ele>
      </trkpt>
      <trkpt lat="50.571713" lon="10.595637">
        <time>1970-01-01T00:00:00+00:00</time>
        <ele>538.0</ele>
      </trkpt>
      <trkpt lat="50.571738" lon="10.595684">
        <time>1970-01-01T00:00:00+00:00</time>
        <ele>538.0</ele>
      </trkpt>
      <trkpt lat="50.57084" lon="10.597165">
        <time>1970-01-01T00:00:00+00:00</time>
        <ele>559.0</ele>
      </trkpt>
      <trkpt lat="50.5697" lon="10.597773">
        <time>1970-01-01T00:00:00+00:00</time>
        <ele>577.0</ele>
      </trkpt>
      <trkpt lat="50.569661" lon="10.598228">
        <time>1970-01-01T00:00:00+00:00</time>
        <ele>583.0</ele>
      </trkpt>
      <trkpt lat="50.569045" lon="10.599259">
        <time>1970-01-01T00:00:00+00:00</time>
        <ele>589.0</ele>
      </trkpt>
      <trkpt lat="50.568334" lon="10.600962">
        <time>1970-01-01T00:00:00+00:00</time>
        <ele>596.0</ele>
      </trkpt>
      <trkpt lat="50.568386" lon="10.601103">
        <time>1970-01-01T00:00:00+00:00</time>
        <ele>597.0</ele>
      </trkpt>
      <trkpt lat="50.568366" lon="10.601247">
        <time>1970-01-01T00:00:00+00:00</time>
        <ele>599.0</ele>
      </trkpt>
      <trkpt lat="50.568291" lon="10.601354">
        <time>1970-01-01T00:00:00+00:00</time>
        <ele>600.0</ele>
      </trkpt>
      <trkpt lat="50.568212" lon="10.601403">
        <time>1970-01-01T00:00:00+00:00</time>
        <ele>600.0</ele>
      </trkpt>
      <trkpt lat="50.567466" lon="10.604806">
        <time>1970-01-01T00:00:00+00:00</time>
        <ele>616.0</ele>
      </trkpt>
      <trkpt lat="50.567348" lon="10.605204">
        <time>1970-01-01T00:00:00+00:00</time>
        <ele>617.0</ele>
      </trkpt>
      <trkpt lat="50.567348" lon="10.605204">
        <time>1970-01-01T00:00:00+00:00</time>
        <ele>617.0</ele>
      </trkpt>
      <trkpt lat="50.567466" lon="10.604806">
        <time>1970-01-01T00:00:00+00:00</time>
        <ele>616.0</ele>
      </trkpt>
      <trkpt lat="50.568212" lon="10.601403">
        <time>1970-01-01T00:00:00+00:00</time>
        <ele>600.0</ele>
      </trkpt>
      <trkpt lat="50.568291" lon="10.601354">
        <time>1970-01-01T00:00:00+00:00</time>
        <ele>600.0</ele>
      </trkpt>
      <trkpt lat="50.568366" lon="10.601247">
        <time>1970-01-01T00:00:00+00:00</time>
        <ele>599.0</ele>
      </trkpt>
      <trkpt lat="50.568386" lon="10.601103">
        <time>1970-01-01T00:00:00+00:00</time>
        <ele>597.0</ele>
      </trkpt>
      <trkpt lat="50.568334" lon="10.600962">
        <time>1970-01-01T00:00:00+00:00</time>
        <ele>596.0</ele>
      </trkpt>
      <trkpt lat="50.569045" lon="10.599259">
        <time>1970-01-01T00:00:00+00:00</time>
        <ele>589.0</ele>
      </trkpt>
      <trkpt lat="50.569661" lon="10.598228">
        <time>1970-01-01T00:00:00+00:00</time>
        <ele>583.0</ele>
      </trkpt>
      <trkpt lat="50.5697" lon="10.597773">
        <time>1970-01-01T00:00:00+00:00</time>
        <ele>577.0</ele>
      </trkpt>
      <trkpt lat="50.569416" lon="10.597398">
        <time>1970-01-01T00:00:00+00:00</time>
        <ele>568.0</ele>
      </trkpt>
      <trkpt lat="50.568914" lon="10.597065">
        <time>1970-01-01T00:00:00+00:00</time>
        <ele>559.0</ele>
      </trkpt>
      <trkpt lat="50.568082" lon="10.596658">
        <time>1970-01-01T00:00:00+00:00</time>
        <ele>549.0</ele>
      </trkpt>
      <trkpt lat="50.567318" lon="10.596353">
        <time>1970-01-01T00:00:00+00:00</time>
        <ele>542.0</ele>
      </trkpt>
      <trkpt lat="50.567171" lon="10.596099">
        <time>1970-01-01T00:00:00+00:00</time>
        <ele>540.0</ele>
      </trkpt>
      <trkpt lat="50.567149" lon="10.595851">
        <time>1970-01-01T00:00:00+00:00</time>
        <ele>539.0</ele>
      </trkpt>
      <trkpt lat="50.56731" lon="10.595297">
        <time>1970-01-01T00:00:00+00:00</time>
        <ele>537.0</ele>
      </trkpt>
      <trkpt lat="50.56734" lon="10.594752">
        <time>1970-01-01T00:00:00+00:00</time>
        <ele>535.0</ele>
      </trkpt>
      <trkpt lat="50.566755" lon="10.594494">
        <time>1970-01-01T00:00:00+00:00</time>
        <ele>533.0</ele>
      </trkpt>
      <trkpt lat="50.566376" lon="10.594462">
        <time>1970-01-01T00:00:00+00:00</time>
        <ele>530.0</ele>
      </trkpt>
      <trkpt lat="50.566186" lon="10.594473">
        <time>1970-01-01T00:00:00+00:00</time>
        <ele>528.0</ele>
      </trkpt>
      <trkpt lat="50.566002" lon="10.59452">
        <time>1970-01-01T00:00:00+00:00</time>
        <ele>527.0</ele>
      </trkpt>
      <trkpt lat="50.56586" lon="10.594609">
        <time>1970-01-01T00:00:00+00:00</time>
        <ele>527.0</ele>
      </trkpt>
      <trkpt lat="50.565649" lon="10.594704">
        <time>1970-01-01T00:00:00+00:00</time>
        <ele>526.0</ele>
      </trkpt>
      <trkpt lat="50.565285" lon="10.59481">
        <time>1970-01-01T00:00:00+00:00</time>
        <ele>524.0</ele>
      </trkpt>
      <trkpt lat="50.565169" lon="10.594815">
        <time>1970-01-01T00:00:00+00:00</time>
        <ele>524.0</ele>
      </trkpt>
      <trkpt lat="50.565075" lon="10.594741">
        <time>1970-01-01T00:00:00+00:00</time>
        <ele>524.0</ele>
      </trkpt>
      <trkpt lat="50.564969" lon="10.594594">
        <time>1970-01-01T00:00:00+00:00</time>
        <ele>525.0</ele>
      </trkpt>
      <trkpt lat="50.564536" lon="10.593713">
        <time>1970-01-01T00:00:00+00:00</time>
        <ele>508.0</ele>
      </trkpt>
      <trkpt lat="50.564833" lon="10.59377">
        <time>1970-01-01T00:00:00+00:00</time>
        <ele>511.0</ele>
      </trkpt>
      <trkpt lat="50.565024" lon="10.59377">
        <time>1970-01-01T00:00:00+00:00</time>
        <ele>514.0</ele>
      </trkpt>
      <trkpt lat="50.565243" lon="10.593727">
        <time>1970-01-01T00:00:00+00:00</time>
        <ele>517.0</ele>
      </trkpt>
      <trkpt lat="50.565521" lon="10.593462">
        <time>1970-01-01T00:00:00+00:00</time>
        <ele>519.0</ele>
      </trkpt>
      <trkpt lat="50.566428" lon="10.592071">
        <time>1970-01-01T00:00:00+00:00</time>
        <ele>526.0</ele>
      </trkpt>
      <trkpt lat="50.566994" lon="10.591129">
        <time>1970-01-01T00:00:00+00:00</time>
        <ele>520.0</ele>
      </trkpt>
      <trkpt lat="50.567591" lon="10.589758">
        <time>1970-01-01T00:00:00+00:00</time>
        <ele>519.0</ele>
      </trkpt>
      <trkpt lat="50.568261" lon="10.588595">
        <time>1970-01-01T00:00:00+00:00</time>
        <ele>502.0</ele>
      </trkpt>
      <trkpt lat="50.569268" lon="10.587065">
        <time>1970-01-01T00:00:00+00:00</time>
        <ele>488.0</ele>
      </trkpt>
      <trkpt lat="50.570065" lon="10.585908">
        <time>1970-01-01T00:00:00+00:00</time>
        <ele>464.0</ele>
      </trkpt>
      <trkpt lat="50.571233" lon="10.584047">
        <time>1970-01-01T00:00:00+00:00</time>
        <ele>454.0</ele>
      </trkpt>
      <trkpt lat="50.571504" lon="10.583667">
        <time>1970-01-01T00:00:00+00:00</time>
        <ele>441.0</ele>
      </trkpt>
      <trkpt lat="50.571792" lon="10.582988">
        <time>1970-01-01T00:00:00+00:00</time>
        <ele>426.0</ele>
      </trkpt>
      <trkpt lat="50.571877" lon="10.583145">
        <time>1970-01-01T00:00:00+00:00</time>
        <ele>424.0</ele>
      </trkpt>
      <trkpt lat="50.571985" lon="10.583233">
        <time>1970-01-01T00:00:00+00:00</time>
        <ele>422.0</ele>
      </trkpt>
      <trkpt lat="50.572059" lon="10.583205">
        <time>1970-01-01T00:00:00+00:00</time>
        <ele>421.0</ele>
      </trkpt>
      <trkpt lat="50.572115" lon="10.583072">
        <time>1970-01-01T00:00:00+00:00</time>
        <ele>420.0</ele>
      </trkpt>
      <trkpt lat="50.572315" lon="10.582637">
        <time>1970-01-01T00:00:00+00:00</time>
        <ele>418.0</ele>
      </trkpt>
      <trkpt lat="50.572357" lon="10.582544">
        <time>1970-01-01T00:00:00+00:00</time>
        <ele>418.0</ele>
      </trkpt>
      <trkpt lat="50.572373" lon="10.582507">
        <time>1970-01-01T00:00:00+00:00</time>
        <ele>418.0</ele>
      </trkpt>
      <trkpt lat="50.572401" lon="10.582413">
        <time>1970-01-01T00:00:00+00:00</time>
        <ele>417.0</ele>
      </trkpt>
      <trkpt lat="50.572493" lon="10.582155">
        <time>1970-01-01T00:00:00+00:00</time>
        <ele>417.0</ele>
      </trkpt>
      <trkpt lat="50.572622" lon="10.581903">
        <time>1970-01-01T00:00:00+00:00</time>
        <ele>418.0</ele>
      </trkpt>
      <trkpt lat="50.572295" lon="10.581497">
        <time>1970-01-01T00:00:00+00:00</time>
        <ele>421.0</ele>
      </trkpt>
    </trkseg>
  </trk>
</gpx>
